{"data":{"norad_id":56425,"intl_designator":"2023-061BD","name":"STARLINK-6224","alt_names":[],"object_type":"PAYLOAD","status":"ACTIVE","operator":null,"country":"US","launch_date":"2023-05-04","launch_site_code":"AFETR","launch_vehicle":null,"mission":null,"orbit_class":"UNKNOWN","rcs_meters":null,"size_class":null,"mass_kg":null,"dimensions":null,"purposes":["comms"],"wikipedia_slug":null,"has_3d_model":false,"image_url":null,"decayed_at":null,"tle_current":{"epoch":"2026-09-20T23:16:08.152320Z","epoch_age_seconds":71506,"freshness":"FRESH","line1":"1 56425U 23061BD  26263.96953880  .00000189  00000+0  16394-4 0  9995","line2":"2 56425  43.0030 156.8482 0001632 266.0029  94.0636 15.27575098186827","mean_motion":15.27575098,"eccentricity":0.0001632,"inclination_deg":43.003,"raan_deg":156.8482,"arg_perigee_deg":266.0029,"mean_anomaly_deg":94.0636,"bstar":1.6394e-5,"rev_number":18682,"period_min":94.267051216359,"perigee_km":481.944026464,"apogee_km":484.18352239678,"semimajor_km":6861.2007744304,"source":"CELESTRAK","updated_at":"2026-09-21T09:00:33.439684Z"}}}